Regional Weather Roundup
Issued by NWS Sioux Falls, SD

Home | Current Version | Previous Version | Graphics & Text | Print | Product List | Glossary Off
Versions: 1 2 3 4 5 6 7 8 9 10 11 12 13 14 15 16 17 18 19 20 21 22 23 24 25 26 27 28 29 30 31 32 33 34 35 36 37 38 39 40 41 42 43 44 45 46 47 48 49 50

000
ASUS43 KFSD 092210
RWRFSD

WEATHER ROUNDUP FOR SE SOUTH DAKOTA/SW MINNESOTA/NW IOWA
NATIONAL WEATHER SERVICE SIOUX FALLS SD
400 PM CST FRI DEC 09 2016

NOTE: "FAIR" INDICATES FEW OR NO CLOUDS BELOW 12,000 FEET WITH NO
SIGNIFICANT WEATHER AND OR OBSTRUCTIONS TO VISIBILITY.


SDZ038>040-050-052>070-092300-
SOUTHEAST SOUTH DAKOTA

CITY           SKY/WX    TMP DP  RH WIND       PRES   REMARKS
BROOKINGS      LGT SNOW   8   3  80 N7        30.47R WCI  -3
CHAMBERLAIN    LGT SNOW  12   6  77 CALM      30.48R
HURON          LGT SNOW   6   1  80 NE9       30.53R WCI  -8
MADISON        FLURRIES   9   7  92 N6        30.46S WCI  -1
MITCHELL       CLOUDY    11   5  77 NE8       30.51R WCI  -1
SIOUX FALLS    MOCLDY    14   7  73 NE5       30.48S WCI   6
WINNER         CLOUDY    12   5  73 NE9       30.43R HAZE    WCI   0
YANKTON        CLOUDY    14   3  62 E5        30.48S WCI   6
$$

MNZ071-072-080-081-089-090-097-098-092300-
SOUTHWEST MINNESOTA

CITY           SKY/WX    TMP DP  RH WIND       PRES   REMARKS
FAIRMONT       FLURRIES  16   9  74 NW5       30.51S WCI   9
JACKSON        CLOUDY    16   5  62 NW5       30.49R WCI   9
LUVERNE        CLOUDY    14   5  67 CALM      30.49F
MARSHALL       CLEAR     11   2  67 NW8       30.52R WCI  -1
MONTEVIDEO     CLEAR     10   1  67 NW7       30.54S WCI   0
PIPESTONE      PTCLDY    12   7  79 N3        30.45F HAZE
REDWOOD FALLS  CLOUDY    11   2  67 NW8       30.52S WCI  -1
TRACY          CLOUDY    13   7  76 NW6       30.50S WCI   4
WINDOM         CLOUDY    16   7  67 CALM      30.49R
WORTHINGTON    FLURRIES  14   7  73 W5        30.48R WCI   6
$$

IAZ001>003-012>014-020>022-031-032-NEZ013-014-SDZ071-092300-
NORTHWEST IOWA

CITY           SKY/WX    TMP DP  RH WIND       PRES   REMARKS
CHEROKEE       FLURRIES  18  10  73 W3        30.51F
DENISON        PTCLDY    19   9  63 CALM      30.49F
ESTHERVILLE    CLOUDY    17   8  67 CALM      30.49S
LE MARS        CLOUDY    18   9  68 CALM      30.51F
ORANGE CITY    CLOUDY    16   9  73 CALM      30.48F
SHELDON        CLOUDY    16   7  67 CALM      30.48S
SIOUX CITY     CLOUDY    19   7  59 SE5       30.52F WCI  12
SPENCER        CLOUDY    18   6  59 W7G17     30.50S WCI   9
STORM LAKE     FLURRIES  18   7  62 W7        30.49F WCI   8
$$

ABBREVIATIONS USED IN REMARKS
   TC - TEMPERATURE IN CELSIUS
  WCI - WIND CHILL INDEX
   HX - HEAT INDEX
  VSB - VISIBILITY




USA.gov is the U.S. government's official web portal to all federal, state and local government web resources and services.